Pueblo, CO

8:51 AM MDT on March 24, 2017 (GMT -0600)
Pueblo Memorial

Weather History for KPUB - June, 2014

Change the Weather History Date:

Sunday, June 1, 2014

  Actual Average Record
Temperature  
Mean Temperature 75 °F 65 °F  
Max Temperature 93 °F 82 °F 102 °F (2002)
Min Temperature 56 °F 49 °F 37 °F (1988)
Degree Days  
Heating Degree Days 0 2  
Month to date heating degree days 0 2  
Since 1 June heating degree days 0 2  
Since 1 July heating degree days 5413 5615  
Cooling Degree Days 10 3  
Month to date cooling degree days 10 3  
Year to date cooling degree days 62 37  
Since 1 June cooling degree days 10 3  
Growing Degree Days 24 (Base 50)    
Moisture  
Dew Point 37 °F    
Average Humidity 49    
Maximum Humidity 93    
Minimum Humidity 5    
Precipitation  
Precipitation 0.00 in 0.05 in 1.50 in (1961)
Month to date precipitation 0.00 0.05  
Year to date precipitation 4.20 4.54  
Snow  
Snow 0.00 in 0.00 in 0.00 in (2002)
Month to date snowfall 0.0 0.0  
Since 1 June snowfall 0.0 0.0  
Since 1 July snowfall 29.3 31.8  
Snow Depth 0.00 in    
Sea Level Pressure  
Sea Level Pressure 29.70 in    
Wind  
Wind Speed 11 mph (NW)    
Max Wind Speed 25 mph    
Max Gust Speed 30 mph    
Visibility 10 miles    
Events      
T = Trace of Precipitation, MM = Missing Value Source: NWS Daily Summary

Daily Weather History Graph

Daily Weather History Graph

Search for Another Location

Airport or City:

Trip Planner

Search our weather history database for the weather conditions in past years. The results will help you decide how hot, cold, wet, or windy it might be!

Date:

Astronomy

Jun. 01, 2014 Rise Set
Actual Time 5:36 AM MDT 8:15 PM MDT
Civil Twilight 5:05 AM MDT 8:46 PM MDT
Nautical Twilight 4:26 AM MDT 9:25 PM MDT
Astronomical Twilight 3:43 AM MDT 10:09 PM MDT
Moon 9:08 AM MDT (6/1) 11:14 PM MDT (6/1)
Length of Visible Light 15h 41m
Length of Day
14h 39m
Waxing Crescent, 15% of the Moon is Illuminated
Jun 1
Waxing Crescent
Jun 5
First Quarter
Jun 12
Full
Jun 19
Last Quarter
Jun 27
New

Hourly Weather History & Observations

Time (MDT) Temp. Dew Point Humidity Pressure Visibility Wind Dir Wind Speed Gust Speed Precip Events Conditions
12:53 AM 64.0 °F 55.9 °F 75% 29.76 in 10.0 mi North 9.2 mph - N/A   Clear
1:53 AM 63.0 °F 55.9 °F 78% 29.73 in 10.0 mi North 9.2 mph - N/A   Clear
2:53 AM 61.0 °F 55.0 °F 81% 29.72 in 10.0 mi North 10.4 mph - N/A   Clear
3:53 AM 60.1 °F 55.9 °F 86% 29.71 in 10.0 mi NNW 8.1 mph - N/A   Clear
4:53 AM 57.0 °F 54.0 °F 89% 29.72 in 10.0 mi West 4.6 mph - N/A   Clear
5:53 AM 55.9 °F 54.0 °F 93% 29.72 in 10.0 mi West 8.1 mph - N/A   Clear
6:53 AM 60.1 °F 55.0 °F 83% 29.73 in 10.0 mi West 4.6 mph - N/A   Clear
7:53 AM 64.9 °F 55.0 °F 70% 29.73 in 10.0 mi West 5.8 mph - N/A   Clear
8:53 AM 69.1 °F 54.0 °F 58% 29.71 in 10.0 mi South 3.5 mph - N/A   Clear
9:53 AM 75.9 °F 51.1 °F 42% 29.69 in 10.0 mi West 6.9 mph - N/A   Clear
10:53 AM 86.0 °F 39.9 °F 20% 29.65 in 10.0 mi WNW 17.3 mph 21.9 mph N/A   Clear
11:53 AM 88.0 °F 28.0 °F 12% 29.65 in 10.0 mi West 16.1 mph 26.5 mph N/A   Clear
12:53 PM 89.1 °F 26.1 °F 10% 29.63 in 10.0 mi WNW 17.3 mph 25.3 mph N/A   Clear
1:53 PM 91.0 °F 24.1 °F 9% 29.62 in 10.0 mi NW 18.4 mph 21.9 mph N/A   Clear
2:53 PM 91.9 °F 23.0 °F 8% 29.61 in 10.0 mi West 18.4 mph 27.6 mph N/A   Clear
3:53 PM 91.0 °F 18.0 °F 7% 29.60 in 10.0 mi NNW 9.2 mph 16.1 mph N/A   Clear
4:53 PM 89.1 °F 14.0 °F 6% 29.62 in 10.0 mi West 10.4 mph 21.9 mph N/A   Clear
5:53 PM 91.0 °F 10.0 °F 5% 29.61 in 10.0 mi NW 12.7 mph - N/A   Clear
6:53 PM 89.1 °F 10.0 °F 5% 29.62 in 10.0 mi WNW 5.8 mph - N/A   Clear
7:53 PM 84.0 °F 12.9 °F 7% 29.64 in 10.0 mi WNW 9.2 mph - N/A   Clear
8:53 PM 73.4 °F 17.6 °F 12% 29.86 in 10.0 mi NW 11.5 mph - N/A   Clear
9:36 PM 77.0 °F 39.9 °F 26% 29.91 in 10.0 mi ENE 15.0 mph - N/A   Clear
9:53 PM 75.9 °F 44.1 °F 32% 29.72 in 10.0 mi ENE 12.7 mph - N/A   Clear
10:53 PM 71.1 °F 45.0 °F 39% 29.75 in 10.0 mi ENE 8.1 mph - N/A   Clear
11:53 PM 69.1 °F 46.0 °F 44% 29.79 in 10.0 mi NNE 16.1 mph - N/A   Clear